This is the latest recevied weather packets stored in our database for station/object HB9FHL-13. If no packets are shown the sender has not sent any weather packets the latest 10 day(s).
| Time | Temp. | Humidity | Pressure | Rain* | Wind** | Luminosity | Snow |
|---|---|---|---|---|---|---|---|
| 1777789982 | 16.11° C | - | 1017.6 hPa | 0 mm | - | - | - |
| 1777789682 | 16.67° C | - | 1017.2 hPa | 0 mm | - | - | - |
| 1777789381 | 16.11° C | - | 1021.2 hPa | 0 mm | - | - | - |
| 1777789081 | 16.11° C | - | 1020.3 hPa | 0 mm | - | - | - |
| 1777788780 | 15.56° C | - | 1015.5 hPa | 0 mm | - | - | - |
| 1777788480 | 15.56° C | - | 1017.6 hPa | 0 mm | - | - | - |
| 1777788176 | 15.56° C | - | 1016.3 hPa | 0 mm | - | - | - |
| 1777787876 | 15.56° C | - | 1016.1 hPa | 0 mm | - | - | - |
| 1777787577 | 16.11° C | - | 1014.8 hPa | 0 mm | - | - | - |
| 1777787275 | 15° C | - | 1016.2 hPa | 0 mm | - | - | - |
| 1777786975 | 16.67° C | - | 1016.7 hPa | 0 mm | - | - | - |
| 1777786676 | 16.11° C | - | 1017.3 hPa | 0 mm | - | - | - |
| 1777786373 | 16.11° C | - | 1015.9 hPa | 0 mm | - | - | - |
| 1777786073 | 16.11° C | - | 1018.5 hPa | 0 mm | - | - | - |
| 1777785772 | 16.11° C | - | 1019.2 hPa | 0 mm | - | - | - |
| 1777785472 | 15.56° C | - | 1014.5 hPa | 0 mm | - | - | - |
| 1777785171 | 15.56° C | - | 1007 hPa | 0 mm | - | - | - |
| 1777784871 | 15.56° C | - | 1023.4 hPa | 0 mm | - | - | - |
| 1777784570 | 15.56° C | - | 1016.6 hPa | 0 mm | - | - | - |
| 1777784270 | 15.56° C | - | 1015.8 hPa | 0 mm | - | - | - |
| 1777783969 | 16.11° C | - | 1016.4 hPa | 0 mm | - | - | - |
| 1777783669 | 16.11° C | - | 1018.3 hPa | 0 mm | - | - | - |
| 1777783368 | 15° C | - | 1015.9 hPa | 0 mm | - | - | - |
| 1777783068 | 15° C | - | 1014.3 hPa | 0 mm | - | - | - |
| 1777782764 | 16.67° C | - | 1015.6 hPa | 0 mm | - | - | - |
* Rain since midnight (hover to see other rain measurements)
** Current wind speed in m/s (hover to see current wind gust speed)